Time,TemperatureF,DewpointF,PressureIn,WindDirection,WindDirectionDegrees,WindSpeedMPH,WindSpeedGustMPH,Humidity,HourlyPrecipIn,Conditions,Clouds,dailyrainin,SoftwareType,DateUTC
2013-07-02 00:01:00,75.2,57.4,29.26,East,91,0.0,0.0,54,0.00,,,0.00,VWS V14.01,2013-07-02 04:01:00,
2013-07-02 00:06:00,75.0,57.8,29.26,NNW,334,0.0,0.0,55,0.00,,,0.00,VWS V14.01,2013-07-02 04:06:00,
2013-07-02 00:11:00,75.0,57.8,29.26,NW,316,0.0,0.0,55,0.00,,,0.00,VWS V14.01,2013-07-02 04:11:00,
2013-07-02 00:16:00,75.0,57.8,29.26,ESE,102,3.6,3.6,55,0.00,,,0.00,VWS V14.01,2013-07-02 04:16:00,
2013-07-02 00:21:00,75.0,58.3,29.26,ESE,106,0.0,0.0,56,0.00,,,0.00,VWS V14.01,2013-07-02 04:21:00,
2013-07-02 00:26:00,75.0,58.3,29.26,SE,131,2.2,3.1,56,0.00,,,0.00,VWS V14.01,2013-07-02 04:26:00,
2013-07-02 00:31:00,74.8,58.1,29.26,East,96,2.7,4.0,56,0.00,,,0.00,VWS V14.01,2013-07-02 04:31:00,
2013-07-02 00:36:00,74.8,58.1,29.26,ESE,117,2.7,3.1,56,0.00,,,0.00,VWS V14.01,2013-07-02 04:36:00,
2013-07-02 00:41:00,74.8,58.1,29.26,East,90,0.0,2.2,56,0.00,,,0.00,VWS V14.01,2013-07-02 04:41:00,
2013-07-02 00:46:00,74.8,58.6,29.26,ENE,74,3.6,3.6,57,0.00,,,0.00,VWS V14.01,2013-07-02 04:46:00,
2013-07-02 00:51:00,74.8,58.6,29.26,ESE,104,0.0,2.7,57,0.00,,,0.00,VWS V14.01,2013-07-02 04:51:00,
2013-07-02 00:56:00,74.7,58.4,29.26,ESE,103,0.0,0.0,57,0.00,,,0.00,VWS V14.01,2013-07-02 04:56:00,
2013-07-02 01:01:00,74.7,58.4,29.26,North,11,0.0,0.0,57,0.00,,,0.00,VWS V14.01,2013-07-02 05:01:00,
2013-07-02 01:06:00,74.5,58.3,29.26,WNW,296,0.0,0.0,57,0.00,,,0.00,VWS V14.01,2013-07-02 05:06:00,
2013-07-02 01:11:00,74.5,58.3,29.26,ESE,118,0.0,0.0,57,0.00,,,0.00,VWS V14.01,2013-07-02 05:11:00,
2013-07-02 01:16:00,74.3,58.1,29.26,WSW,244,0.0,0.0,57,0.00,,,0.00,VWS V14.01,2013-07-02 05:16:00,
2013-07-02 01:21:00,74.3,58.1,29.26,ESE,122,0.0,2.7,57,0.00,,,0.00,VWS V14.01,2013-07-02 05:21:00,
2013-07-02 01:26:00,74.1,57.9,29.26,ESE,118,0.0,0.0,57,0.00,,,0.00,VWS V14.01,2013-07-02 05:26:00,
2013-07-02 01:31:00,74.1,58.4,29.26,ENE,75,0.0,2.2,58,0.00,,,0.00,VWS V14.01,2013-07-02 05:31:00,
2013-07-02 01:36:00,74.1,58.4,29.26,ENE,57,0.0,0.0,58,0.00,,,0.00,VWS V14.01,2013-07-02 05:36:00,
2013-07-02 01:41:00,74.1,58.4,29.26,East,91,0.0,0.0,58,0.00,,,0.00,VWS V14.01,2013-07-02 05:41:00,
2013-07-02 01:46:00,73.9,58.2,29.26,NNW,345,0.0,0.0,58,0.00,,,0.00,VWS V14.01,2013-07-02 05:46:00,
2013-07-02 01:51:00,73.9,58.2,29.29,NNW,345,0.0,0.0,58,0.00,,,0.00,VWS V14.01,2013-07-02 05:51:00,
2013-07-02 01:56:00,73.9,58.7,29.29,NNW,345,0.0,0.0,59,0.00,,,0.00,VWS V14.01,2013-07-02 05:56:00,
2013-07-02 02:01:00,73.9,58.7,29.29,West,279,0.0,0.0,59,0.00,,,0.00,VWS V14.01,2013-07-02 06:01:00,
2013-07-02 02:06:00,73.8,58.5,29.26,WNW,297,0.0,0.0,59,0.00,,,0.00,VWS V14.01,2013-07-02 06:06:00,
2013-07-02 02:11:00,73.8,58.5,29.26,WNW,297,0.0,0.0,59,0.00,,,0.00,VWS V14.01,2013-07-02 06:11:00,
2013-07-02 02:16:00,73.8,58.5,29.26,NE,34,0.0,0.0,59,0.00,,,0.00,VWS V14.01,2013-07-02 06:16:00,
2013-07-02 02:21:00,73.8,58.5,29.26,East,98,0.0,0.0,59,0.00,,,0.00,VWS V14.01,2013-07-02 06:21:00,
2013-07-02 02:26:00,73.8,59.0,29.26,East,98,0.0,0.0,60,0.00,,,0.00,VWS V14.01,2013-07-02 06:26:00,
2013-07-02 02:31:00,73.8,59.0,29.26,East,98,0.0,0.0,60,0.00,,,0.00,VWS V14.01,2013-07-02 06:31:00,
2013-07-02 02:36:00,73.8,59.0,29.26,East,98,0.0,0.0,60,0.00,,,0.00,VWS V14.01,2013-07-02 06:36:00,
2013-07-02 02:41:00,73.8,59.0,29.26,East,98,0.0,0.0,60,0.00,,,0.00,VWS V14.01,2013-07-02 06:41:00,
2013-07-02 02:46:00,73.8,59.0,29.26,SSW,203,0.0,0.0,60,0.00,,,0.00,VWS V14.01,2013-07-02 06:46:00,
2013-07-02 02:51:00,73.8,59.0,29.26,East,90,0.0,0.0,60,0.00,,,0.00,VWS V14.01,2013-07-02 06:51:00,
2013-07-02 02:56:00,73.8,59.0,29.26,East,90,0.0,0.0,60,0.00,,,0.00,VWS V14.01,2013-07-02 06:56:00,
2013-07-02 03:01:00,73.8,59.0,29.26,East,90,0.0,0.0,60,0.00,,,0.00,VWS V14.01,2013-07-02 07:01:00,
2013-07-02 03:07:00,73.8,59.0,29.26,East,90,0.0,0.0,60,0.00,,,0.00,VWS V14.01,2013-07-02 07:07:00,
2013-07-02 03:12:00,73.6,58.8,29.26,East,99,0.0,0.0,60,0.00,,,0.00,VWS V14.01,2013-07-02 07:12:00,
2013-07-02 03:17:00,73.6,59.3,29.26,ESE,102,0.0,0.0,61,0.00,,,0.00,VWS V14.01,2013-07-02 07:17:00,
2013-07-02 03:22:00,73.6,59.3,29.26,ESE,102,0.0,0.0,61,0.00,,,0.00,VWS V14.01,2013-07-02 07:22:00,
2013-07-02 03:27:00,73.6,59.3,29.26,ESE,102,0.0,0.0,61,0.00,,,0.00,VWS V14.01,2013-07-02 07:27:00,
2013-07-02 03:32:00,73.6,59.3,29.26,ESE,102,0.0,0.0,61,0.00,,,0.00,VWS V14.01,2013-07-02 07:32:00,
2013-07-02 03:37:00,73.6,59.3,29.29,ESE,102,0.0,0.0,61,0.00,,,0.00,VWS V14.01,2013-07-02 07:37:00,
2013-07-02 03:42:00,73.6,59.3,29.29,ESE,102,0.0,0.0,61,0.00,,,0.00,VWS V14.01,2013-07-02 07:42:00,
2013-07-02 03:47:00,73.6,59.3,29.29,ESE,102,0.0,0.0,61,0.00,,,0.00,VWS V14.01,2013-07-02 07:47:00,
2013-07-02 03:52:00,73.8,59.5,29.29,ESE,102,0.0,0.0,61,0.00,,,0.00,VWS V14.01,2013-07-02 07:52:00,
2013-07-02 03:57:00,73.8,59.5,29.29,ESE,102,0.0,0.0,61,0.00,,,0.00,VWS V14.01,2013-07-02 07:57:00,
2013-07-02 04:02:00,73.8,59.5,29.29,ESE,102,0.0,0.0,61,0.00,,,0.00,VWS V14.01,2013-07-02 08:02:00,
2013-07-02 04:07:00,73.8,59.5,29.29,ESE,102,0.0,0.0,61,0.00,,,0.00,VWS V14.01,2013-07-02 08:07:00,
2013-07-02 04:12:00,73.6,59.3,29.29,ESE,102,0.0,0.0,61,0.00,,,0.00,VWS V14.01,2013-07-02 08:12:00,
2013-07-02 04:17:00,73.6,59.3,29.29,ESE,102,0.0,0.0,61,0.00,,,0.00,VWS V14.01,2013-07-02 08:17:00,
2013-07-02 04:22:00,73.6,59.3,29.29,ESE,102,0.0,0.0,61,0.00,,,0.00,VWS V14.01,2013-07-02 08:22:00,
2013-07-02 04:27:00,73.6,59.8,29.29,ESE,102,0.0,0.0,62,0.00,,,0.00,VWS V14.01,2013-07-02 08:27:00,
2013-07-02 04:32:00,73.6,59.8,29.29,ESE,102,0.0,0.0,62,0.00,,,0.00,VWS V14.01,2013-07-02 08:32:00,
2013-07-02 04:37:00,73.6,59.8,29.29,ESE,102,0.0,0.0,62,0.00,,,0.00,VWS V14.01,2013-07-02 08:37:00,
2013-07-02 04:42:00,73.6,59.8,29.29,ENE,71,0.0,0.0,62,0.00,,,0.00,VWS V14.01,2013-07-02 08:42:00,
2013-07-02 04:47:00,73.6,59.8,29.29,East,95,0.0,0.0,62,0.00,,,0.00,VWS V14.01,2013-07-02 08:47:00,
2013-07-02 04:52:00,73.8,59.9,29.29,ENE,71,0.0,0.0,62,0.00,,,0.00,VWS V14.01,2013-07-02 08:52:00,
2013-07-02 04:57:00,73.8,59.9,29.29,ENE,71,0.0,0.0,62,0.00,,,0.00,VWS V14.01,2013-07-02 08:57:00,
2013-07-02 05:02:00,73.8,59.9,29.29,ENE,72,0.0,0.0,62,0.00,,,0.00,VWS V14.01,2013-07-02 09:02:00,
2013-07-02 05:07:00,73.6,59.8,29.29,ENE,72,0.0,0.0,62,0.00,,,0.00,VWS V14.01,2013-07-02 09:07:00,
2013-07-02 05:12:00,73.6,60.2,29.29,ENE,72,0.0,0.0,63,0.00,,,0.00,VWS V14.01,2013-07-02 09:12:00,
2013-07-02 05:17:00,73.6,60.2,29.29,ENE,72,0.0,0.0,63,0.00,,,0.00,VWS V14.01,2013-07-02 09:17:00,
2013-07-02 05:22:00,73.4,60.0,29.29,ENE,72,0.0,0.0,63,0.00,,,0.00,VWS V14.01,2013-07-02 09:22:00,
2013-07-02 05:27:00,73.4,60.0,29.29,ENE,72,0.0,0.0,63,0.00,,,0.00,VWS V14.01,2013-07-02 09:27:00,
2013-07-02 05:32:00,73.4,60.0,29.29,ENE,72,0.0,0.0,63,0.00,,,0.00,VWS V14.01,2013-07-02 09:32:00,
2013-07-02 05:37:00,73.4,60.5,29.29,ENE,72,0.0,0.0,64,0.00,,,0.00,VWS V14.01,2013-07-02 09:37:00,
2013-07-02 05:42:00,73.4,60.5,29.29,ENE,72,0.0,0.0,64,0.00,,,0.00,VWS V14.01,2013-07-02 09:42:00,
2013-07-02 05:47:00,73.4,60.5,29.29,ENE,72,0.0,0.0,64,0.00,,,0.00,VWS V14.01,2013-07-02 09:47:00,
2013-07-02 05:52:00,73.4,60.5,29.29,East,101,0.0,0.0,64,0.00,,,0.00,VWS V14.01,2013-07-02 09:52:00,
2013-07-02 05:57:00,73.4,60.9,29.29,East,101,0.0,0.0,65,0.00,,,0.00,VWS V14.01,2013-07-02 09:57:00,
2013-07-02 06:02:00,73.6,61.1,29.29,East,101,0.0,0.0,65,0.00,,,0.00,VWS V14.01,2013-07-02 10:02:00,
2013-07-02 06:07:00,73.6,61.1,29.32,East,101,0.0,0.0,65,0.00,,,0.00,VWS V14.01,2013-07-02 10:07:00,
2013-07-02 06:12:00,73.6,61.1,29.32,East,101,0.0,0.0,65,0.00,,,0.00,VWS V14.01,2013-07-02 10:12:00,
2013-07-02 06:17:00,73.6,61.1,29.32,East,101,0.0,0.0,65,0.00,,,0.00,VWS V14.01,2013-07-02 10:17:00,
2013-07-02 06:22:00,73.6,61.5,29.32,East,101,0.0,0.0,66,0.00,,,0.00,VWS V14.01,2013-07-02 10:22:00,
2013-07-02 06:27:00,73.8,61.7,29.32,East,101,0.0,0.0,66,0.00,,,0.00,VWS V14.01,2013-07-02 10:27:00,
2013-07-02 06:32:00,73.8,61.7,29.32,East,101,0.0,0.0,66,0.00,,,0.00,VWS V14.01,2013-07-02 10:32:00,
2013-07-02 06:37:00,73.9,61.9,29.32,East,101,0.0,0.0,66,0.00,,,0.00,VWS V14.01,2013-07-02 10:37:00,
2013-07-02 06:42:00,73.9,61.9,29.32,East,101,0.0,0.0,66,0.00,,,0.00,VWS V14.01,2013-07-02 10:42:00,
2013-07-02 06:47:00,73.9,61.9,29.32,East,101,0.0,0.0,66,0.00,,,0.00,VWS V14.01,2013-07-02 10:47:00,
2013-07-02 06:52:00,73.9,61.9,29.32,East,101,0.0,0.0,66,0.00,,,0.00,VWS V14.01,2013-07-02 10:52:00,
2013-07-02 06:57:00,73.9,61.9,29.32,East,101,0.0,0.0,66,0.00,,,0.00,VWS V14.01,2013-07-02 10:57:00,
2013-07-02 07:02:00,73.9,61.9,29.32,East,101,0.0,0.0,66,0.00,,,0.00,VWS V14.01,2013-07-02 11:02:00,
2013-07-02 07:07:00,74.1,62.0,29.32,East,101,0.0,0.0,66,0.00,,,0.00,VWS V14.01,2013-07-02 11:07:00,
2013-07-02 07:12:00,74.3,62.6,29.32,East,101,0.0,0.0,67,0.00,,,0.00,VWS V14.01,2013-07-02 11:12:00,
2013-07-02 07:17:00,74.5,62.8,29.32,East,101,0.0,0.0,67,0.00,,,0.00,VWS V14.01,2013-07-02 11:17:00,
2013-07-02 07:22:00,74.7,63.0,29.32,East,101,0.0,0.0,67,0.00,,,0.00,VWS V14.01,2013-07-02 11:22:00,
2013-07-02 07:27:00,74.8,63.2,29.32,East,101,0.0,0.0,67,0.00,,,0.00,VWS V14.01,2013-07-02 11:27:00,
2013-07-02 07:32:00,75.0,63.3,29.32,ENE,78,0.0,0.0,67,0.00,,,0.00,VWS V14.01,2013-07-02 11:32:00,
2013-07-02 07:37:00,75.0,63.3,29.32,East,82,0.0,0.0,67,0.00,,,0.00,VWS V14.01,2013-07-02 11:37:00,
2013-07-02 07:42:00,75.2,63.5,29.32,East,82,0.0,0.0,67,0.00,,,0.00,VWS V14.01,2013-07-02 11:42:00,
2013-07-02 07:47:00,75.4,63.7,29.32,East,82,0.0,0.0,67,0.00,,,0.00,VWS V14.01,2013-07-02 11:47:00,
2013-07-02 07:52:00,75.7,64.0,29.32,East,82,0.0,0.0,67,0.00,,,0.00,VWS V14.01,2013-07-02 11:52:00,
2013-07-02 07:57:00,75.9,64.2,29.32,East,82,0.0,0.0,67,0.00,,,0.00,VWS V14.01,2013-07-02 11:57:00,
2013-07-02 08:02:00,76.1,64.4,29.32,East,82,0.0,0.0,67,0.00,,,0.00,VWS V14.01,2013-07-02 12:02:00,
2013-07-02 08:07:00,76.3,64.1,29.35,East,84,0.0,0.0,66,0.00,,,0.00,VWS V14.01,2013-07-02 12:07:00,
2013-07-02 08:12:00,76.5,64.3,29.35,East,84,0.0,0.0,66,0.00,,,0.00,VWS V14.01,2013-07-02 12:12:00,
2013-07-02 08:17:00,77.0,64.8,29.35,East,84,0.0,0.0,66,0.00,,,0.00,VWS V14.01,2013-07-02 12:17:00,
2013-07-02 08:22:00,77.5,65.3,29.35,NNE,20,0.0,0.0,66,0.00,,,0.00,VWS V14.01,2013-07-02 12:22:00,
2013-07-02 08:27:00,78.1,65.8,29.35,NNE,20,0.0,0.0,66,0.00,,,0.00,VWS V14.01,2013-07-02 12:27:00,
2013-07-02 08:33:00,78.4,66.2,29.35,NNW,344,0.0,3.1,66,0.00,,,0.00,VWS V14.01,2013-07-02 12:33:00,
2013-07-02 08:38:00,78.6,65.9,29.35,NNE,26,0.0,0.0,65,0.00,,,0.00,VWS V14.01,2013-07-02 12:38:00,
2013-07-02 08:43:00,78.8,65.6,29.35,NW,320,4.0,4.0,64,0.00,,,0.00,VWS V14.01,2013-07-02 12:43:00,
2013-07-02 08:48:00,79.0,64.9,29.35,NNW,332,0.0,0.0,62,0.00,,,0.00,VWS V14.01,2013-07-02 12:48:00,
2013-07-02 08:53:00,79.2,65.0,29.35,ESE,109,2.2,3.6,62,0.00,,,0.00,VWS V14.01,2013-07-02 12:53:00,
2013-07-02 08:58:00,79.3,64.7,29.35,North,357,2.2,3.6,61,0.00,,,0.00,VWS V14.01,2013-07-02 12:58:00,
2013-07-02 09:03:00,79.5,64.4,29.35,SE,133,0.0,0.0,60,0.00,,,0.00,VWS V14.01,2013-07-02 13:03:00,
2013-07-02 09:08:00,79.7,63.6,29.35,SSE,166,2.7,2.7,58,0.00,,,0.00,VWS V14.01,2013-07-02 13:08:00,
2013-07-02 09:13:00,80.8,64.1,29.35,West,276,3.1,5.4,57,0.00,,,0.00,VWS V14.01,2013-07-02 13:13:00,
2013-07-02 09:18:00,81.3,62.6,29.35,East,80,3.1,3.1,53,0.00,,,0.00,VWS V14.01,2013-07-02 13:18:00,
2013-07-02 09:23:00,82.2,62.3,29.35,ESE,106,2.7,5.8,51,0.00,,,0.00,VWS V14.01,2013-07-02 13:23:00,
2013-07-02 09:28:00,82.4,60.8,29.35,East,86,4.0,4.0,48,0.00,,,0.00,VWS V14.01,2013-07-02 13:28:00,
2013-07-02 09:33:00,82.8,59.9,29.35,East,79,2.7,4.9,46,0.00,,,0.00,VWS V14.01,2013-07-02 13:33:00,
2013-07-02 09:38:00,83.3,59.8,29.35,East,100,4.0,4.0,45,0.00,,,0.00,VWS V14.01,2013-07-02 13:38:00,
2013-07-02 09:43:00,83.5,59.3,29.35,ENE,78,4.9,4.9,44,0.00,,,0.00,VWS V14.01,2013-07-02 13:43:00,
2013-07-02 09:48:00,83.3,58.5,29.35,NNE,18,0.0,2.7,43,0.00,,,0.00,VWS V14.01,2013-07-02 13:48:00,
2013-07-02 09:53:00,83.8,58.3,29.35,East,94,3.1,3.1,42,0.00,,,0.00,VWS V14.01,2013-07-02 13:53:00,
2013-07-02 09:58:00,84.7,59.1,29.35,East,79,2.7,5.8,42,0.00,,,0.00,VWS V14.01,2013-07-02 13:58:00,
2013-07-02 10:03:00,84.4,57.5,29.35,ESE,104,3.1,3.6,40,0.00,,,0.00,VWS V14.01,2013-07-02 14:03:00,
2013-07-02 10:08:00,84.0,57.1,29.35,NW,314,4.0,4.0,40,0.00,,,0.00,VWS V14.01,2013-07-02 14:08:00,
2013-07-02 10:13:00,84.0,56.4,29.35,ESE,115,5.4,5.4,39,0.00,,,0.00,VWS V14.01,2013-07-02 14:13:00,
2013-07-02 10:18:00,84.0,56.4,29.35,ESE,111,3.1,3.1,39,0.00,,,0.00,VWS V14.01,2013-07-02 14:18:00,
2013-07-02 10:23:00,84.2,55.9,29.35,SSE,162,3.6,4.9,38,0.00,,,0.00,VWS V14.01,2013-07-02 14:23:00,
2013-07-02 10:28:00,84.4,56.0,29.35,ENE,59,6.3,6.3,38,0.00,,,0.00,VWS V14.01,2013-07-02 14:28:00,
2013-07-02 10:33:00,84.7,55.6,29.35,NNE,29,0.0,4.0,37,0.00,,,0.00,VWS V14.01,2013-07-02 14:33:00,
2013-07-02 10:38:00,84.7,55.6,29.35,NNE,31,0.0,0.0,37,0.00,,,0.00,VWS V14.01,2013-07-02 14:38:00,
2013-07-02 10:43:00,84.7,54.9,29.35,ESE,106,2.7,5.4,36,0.00,,,0.00,VWS V14.01,2013-07-02 14:43:00,
2013-07-02 10:48:00,84.7,54.1,29.35,SSE,157,0.0,0.0,35,0.00,,,0.00,VWS V14.01,2013-07-02 14:48:00,
2013-07-02 10:53:00,84.7,54.1,29.38,ESE,111,2.2,2.7,35,0.00,,,0.00,VWS V14.01,2013-07-02 14:53:00,
2013-07-02 10:58:00,84.0,53.5,29.38,East,99,3.1,3.6,35,0.00,,,0.00,VWS V14.01,2013-07-02 14:58:00,
2013-07-02 11:03:00,83.5,53.0,29.38,NNE,14,0.0,0.0,35,0.00,,,0.00,VWS V14.01,2013-07-02 15:03:00,
2013-07-02 11:08:00,83.3,52.8,29.38,East,101,0.0,2.2,35,0.00,,,0.00,VWS V14.01,2013-07-02 15:08:00,
2013-07-02 11:13:00,83.5,53.8,29.38,West,271,2.7,2.7,36,0.00,,,0.00,VWS V14.01,2013-07-02 15:13:00,
2013-07-02 11:18:00,83.8,54.1,29.38,SSE,165,2.2,3.1,36,0.00,,,0.00,VWS V14.01,2013-07-02 15:18:00,
2013-07-02 11:23:00,84.2,54.4,29.38,ESE,107,2.7,2.7,36,0.00,,,0.00,VWS V14.01,2013-07-02 15:23:00,
2013-07-02 11:28:00,84.6,54.7,29.38,NE,54,2.7,3.6,36,0.00,,,0.00,VWS V14.01,2013-07-02 15:28:00,
2013-07-02 11:33:00,84.7,54.9,29.38,ESE,112,2.2,2.2,36,0.00,,,0.00,VWS V14.01,2013-07-02 15:33:00,
2013-07-02 11:38:00,85.1,55.2,29.38,East,85,2.7,4.0,36,0.00,,,0.00,VWS V14.01,2013-07-02 15:38:00,
2013-07-02 11:43:00,85.3,54.6,29.38,NNW,338,0.0,2.7,35,0.00,,,0.00,VWS V14.01,2013-07-02 15:43:00,
2013-07-02 11:48:00,86.4,54.7,29.38,ESE,104,2.7,3.6,34,0.00,,,0.00,VWS V14.01,2013-07-02 15:48:00,
2013-07-02 11:53:00,87.3,55.5,29.38,ENE,74,5.4,5.8,34,0.00,,,0.00,VWS V14.01,2013-07-02 15:53:00,
2013-07-02 11:58:00,87.6,54.2,29.38,ESE,118,2.7,3.6,32,0.00,,,0.00,VWS V14.01,2013-07-02 15:58:00,
2013-07-02 12:03:00,87.4,53.1,29.38,North,1,4.0,6.7,31,0.00,,,0.00,VWS V14.01,2013-07-02 16:03:00,
2013-07-02 12:08:00,87.4,53.1,29.38,NW,307,2.7,4.0,31,0.00,,,0.00,VWS V14.01,2013-07-02 16:08:00,
2013-07-02 12:13:00,87.8,53.4,29.38,ENE,63,8.1,8.1,31,0.00,,,0.00,VWS V14.01,2013-07-02 16:13:00,
2013-07-02 12:18:00,87.8,52.5,29.38,ESE,112,7.6,7.6,30,0.00,,,0.00,VWS V14.01,2013-07-02 16:18:00,
2013-07-02 12:23:00,87.4,52.2,29.38,ESE,109,2.2,3.6,30,0.00,,,0.00,VWS V14.01,2013-07-02 16:23:00,
2013-07-02 12:28:00,86.7,51.6,29.38,SW,218,3.6,3.6,30,0.00,,,0.00,VWS V14.01,2013-07-02 16:28:00,
2013-07-02 12:33:00,86.4,52.2,29.38,South,169,2.7,3.1,31,0.00,,,0.00,VWS V14.01,2013-07-02 16:33:00,
2013-07-02 12:38:00,86.2,52.0,29.38,NNW,339,3.1,5.4,31,0.00,,,0.00,VWS V14.01,2013-07-02 16:38:00,
2013-07-02 12:43:00,85.8,52.6,29.38,East,93,0.0,3.1,32,0.00,,,0.00,VWS V14.01,2013-07-02 16:43:00,
2013-07-02 12:48:00,85.3,52.1,29.38,SSE,161,2.7,2.7,32,0.00,,,0.00,VWS V14.01,2013-07-02 16:48:00,
2013-07-02 12:53:00,85.1,52.0,29.38,SE,137,2.2,2.7,32,0.00,,,0.00,VWS V14.01,2013-07-02 16:53:00,
2013-07-02 12:58:00,85.5,53.1,29.38,SSE,159,3.6,6.3,33,0.00,,,0.00,VWS V14.01,2013-07-02 16:58:00,
2013-07-02 13:03:00,85.6,53.3,29.38,ESE,108,3.6,5.8,33,0.00,,,0.00,VWS V14.01,2013-07-02 17:03:00,
2013-07-02 13:08:00,86.2,52.9,29.38,WNW,303,3.1,3.6,32,0.00,,,0.00,VWS V14.01,2013-07-02 17:08:00,
2013-07-02 13:13:00,86.4,53.0,29.38,North,353,3.6,4.0,32,0.00,,,0.00,VWS V14.01,2013-07-02 17:13:00,
2013-07-02 13:18:00,86.5,53.2,29.38,ESE,109,2.2,2.7,32,0.00,,,0.00,VWS V14.01,2013-07-02 17:18:00,
2013-07-02 13:23:00,86.9,53.5,29.38,SW,235,6.3,6.3,32,0.00,,,0.00,VWS V14.01,2013-07-02 17:23:00,
2013-07-02 13:28:00,86.5,53.2,29.38,ESE,103,5.8,5.8,32,0.00,,,0.00,VWS V14.01,2013-07-02 17:28:00,
2013-07-02 13:33:00,86.5,52.3,29.38,East,95,6.3,6.3,31,0.00,,,0.00,VWS V14.01,2013-07-02 17:33:00,
2013-07-02 13:38:00,86.2,52.0,29.38,SSE,152,3.1,3.1,31,0.00,,,0.00,VWS V14.01,2013-07-02 17:38:00,
2013-07-02 13:43:00,86.0,51.9,29.38,East,91,3.6,4.0,31,0.00,,,0.00,VWS V14.01,2013-07-02 17:43:00,
2013-07-02 13:48:00,85.8,52.6,29.38,East,91,3.6,3.6,32,0.00,,,0.00,VWS V14.01,2013-07-02 17:48:00,
2013-07-02 13:53:00,85.3,51.2,29.38,SSW,204,4.0,4.0,31,0.00,,,0.00,VWS V14.01,2013-07-02 17:53:00,
2013-07-02 13:58:00,85.1,51.1,29.38,SE,124,3.6,7.6,31,0.00,,,0.00,VWS V14.01,2013-07-02 17:58:00,
2013-07-02 14:03:00,85.1,52.0,29.38,ESE,110,3.1,4.0,32,0.00,,,0.00,VWS V14.01,2013-07-02 18:03:00,
2013-07-02 14:08:00,85.1,52.0,29.38,East,85,2.7,3.1,32,0.00,,,0.00,VWS V14.01,2013-07-02 18:08:00,
2013-07-02 14:13:00,84.9,51.8,29.38,East,84,3.1,6.3,32,0.00,,,0.00,VWS V14.01,2013-07-02 18:13:00,
2013-07-02 14:18:00,84.7,51.6,29.38,WNW,292,3.1,3.6,32,0.00,,,0.00,VWS V14.01,2013-07-02 18:18:00,
2013-07-02 14:23:00,84.4,51.3,29.38,East,84,3.6,4.9,32,0.00,,,0.00,VWS V14.01,2013-07-02 18:23:00,
2013-07-02 14:28:00,84.2,52.0,29.38,SE,126,5.4,5.4,33,0.00,,,0.00,VWS V14.01,2013-07-02 18:28:00,
2013-07-02 14:33:00,84.2,52.0,29.38,WNW,293,2.7,2.7,33,0.00,,,0.00,VWS V14.01,2013-07-02 18:33:00,
2013-07-02 14:38:00,84.4,53.0,29.38,ESE,104,2.7,3.1,34,0.00,,,0.00,VWS V14.01,2013-07-02 18:38:00,
2013-07-02 14:43:00,84.4,52.2,29.38,SE,126,7.2,7.6,33,0.00,,,0.00,VWS V14.01,2013-07-02 18:43:00,
2013-07-02 14:48:00,84.4,52.2,29.38,East,86,6.3,6.3,33,0.00,,,0.00,VWS V14.01,2013-07-02 18:48:00,